INTELSAT 33E DEB, 61988

Orbit data source: Space-Track

INTELSAT 33E DEB, 61988 is space debris in GEO originally from a launch on Wed, 24 Aug 2016 UTC launched from the French Guiana (FRGUI). Debris objects in space refer to the collection of defunct objects orbiting the Earth. Examples of debris include non-operational satellites, rocket bodies, and fragments generated from explosions, collisions, or faulty payload assembly.

Not visible in the next 10 days
Identifier
61988, 2016-053E
Orbit
GEO
Country
Flag of UnknownUnknown / ITSO
Related business
Manufacturer
Boeing/ES
Mission
Spacecraft
Bus & Motor
Unknown
Mass
Unknown
Launch date (UTC)
2016-08-24 (9 years ago)
Launch vehicle
Unknown
Launch site
French Guiana (FRGUI)
Object type
Payload
Rocket body
Debris
Shape & HBR
Unknown shape, 1.1 m
Radar Cross Section
RCS unknown

Expand to show TLE details & history
Last TLE update: 2 days ago

TLE from 2 days ago
0 INTELSAT 33E DEB
1 61988U 16053E   25345.67867609 -.00000334  00000-0  00000-0 0  9996
2 61988   1.2512  99.3007 0056443 130.8217 228.8952  0.99847312  4167
Epoch: 2025-12-11T16:17Z
TLE epoch observation values (Epoch: 2025-12-11T16:17:17.614Z)
Latitude
Longitude
133.57492°
Altitude
36,064.13 km
Speed
3.059 km/s
True Right ascension
06h 34m 07s
True Declination
0° 00' 00"
Sunlit
Object was in daylight at epoch
Visualization orbit readout
Latitude
Unknown
Longitude
Unknown
Altitude
Unknown
Speed
Unknown
Apparent Right ascension
Unknown
Apparent Declination
Unknown
Sunlit
N/A
Visualization observer readout
Local Sidereal Time
23:33:54
Azimuth
Unknown
Elevation
Unknown
Doppler factor
Unknown
Orbital elements
Apogee altitude
36,145.749 km
Perigee altitude
35,668.408 km
Semi-major axis
42,285.215 km
Eccentricity
0.00564
Inclination
1.2512°
RAAN
99.3007°
Arg. of periapsis
130.8217°
True anomaly
228.4101°
Mean anomaly
228.8952°
Eccentric anomaly
228.65242°
Mean motion
0.24961 °/min
Orbital period
1,442.26 mins
BSTAR
0
Loading maneuver chart data...
Computing Atmospheric mass density...
Loading historical data...
Loading historical data...
Loading historical data...
Loading historical data...
Loading historical data...
Loading historical data...
Loading historical data...

Documentation

Showing up to 5 results
|